Regional Weather Roundup
Issued by NWS Charleston, SC

Current Version | Previous Version | Graphics & Text | Print | Product List | Glossary Off
Versions: 1 2 3 4 5 6 7 8 9 10 11 12 13 14 15 16 17 18 19 20 21 22 23 24 25 26 27 28 29 30 31 32 33 34 35 36 37 38 39 40 41 42 43 44 45 46 47 48 49 50
000 ASUS42 KCHS 230310 RWRCHS REGIONAL WEATHER ROUNDUP NATIONAL WEATHER SERVICE CHARLESTON SC 1100 PM EDT WED OCT 22 2014 NOTE: "FAIR" INDICATES FEW OR NO CLOUDS BELOW 12,000 FEET WITH NO SIGNIFICANT WEATHER AND/OR OBSTRUCTIONS TO VISIBILITY. NOT ALL STATIONS ARE QUALITY CONTROLLED BY THE NATIONAL WEATHER SERVICE. USE DATA WITH CAUTION...ESPECIALLY DEWPOINT OBSERVATIONS. SCZ027-030-031-034>040-042>050-230400- ...SOUTH CAROLINA... CITY SKY/WX TMP DP RH WIND PRES REMARKS N CHARLESTON CLEAR 54 45 71 NW6 30.06S WATERFRONT PRK N/A 59 N/A N/A W3 N/A FORT JOHNSON NOT AVBL JOHNS ISLAND CLEAR 52 48 87 CALM 30.07R PINOPOLIS NOT AVBL MONCKS CORNER FAIR 50 50 100 CALM 30.06R SUMMERVILLE FAIR 48 46 93 CALM 30.08R BEAUFORT MCAS CLEAR 52 46 80 W3 30.08R BEAUFORT ARPT FAIR 54 50 87 NW5 30.07R HILTON HEAD IS NOT AVBL GEORGETOWN NOT AVBL WALTERBORO CLEAR 48 N/A N/A CALM 30.08R ORANGEBURG CLEAR 52 44 74 NW3 30.09R BARNWELL FAIR 46 45 93 N3 30.10R AIKEN FAIR 52 45 76 N7 30.13R MANNING FAIR 50 50 100 N5 30.08R KINGSTREE NOT AVBL COLUMBIA CLEAR 56 41 57 N5 30.10R SUMTER CLEAR 53 46 75 N7 30.07R FLORENCE CLEAR 56 40 55 N10 30.07R MYRTLE BEACH CLEAR 55 45 67 NW6 30.05R N MYRTLE BEACH CLEAR 54 46 74 N3 30.04R $$ GAZ063-065-086>088-099>101-113>116-118-119-134-136>141-150-230400- ...GEORGIA... CITY SKY/WX TMP DP RH WIND PRES REMARKS SAVANNAH ARPT CLEAR 52 48 86 N3 30.08S HUNTER AAF CLEAR 58 46 66 N3 30.05S FORT STEWART CLEAR 48 45 87 CALM 30.06S STATESBORO NOT AVBL SYLVANIA CLEAR 53 51 95 CALM 30.10R CLAXTON FAIR 48 48 100 CALM 30.09S THOMSON CLEAR 47 47 100 CALM 30.16R AUGUSTA-BUSH CLEAR 44 41 89 N5 30.10R AUGUSTA-DANIEL CLEAR 55 44 66 N7 30.11R SWAINSBORO FAIR 52 46 82 MISG 30.10R VIDALIA CLEAR 54 45 71 CALM 30.09S ALMA CLEAR 49 46 90 CALM 30.08R WAYCROSS CLEAR 54 51 90 CALM 30.07S JESUP FAIR 50 48 93 CALM 30.08R BRUNSWICK CLEAR 52 50 93 CALM 30.08R SAINT SIMONS CLEAR 56 49 77 CALM 30.07R $$ SCZ027-028-034-036>038-045-046-048>050-GAZ119-141-230400- ...LAKE AND SUPPLEMENTAL COASTAL OBSERVATIONS... STATION/POSITION TIME TEMP WIND PRES WAVE SWELL AIR SEA DIR/SP/G HT/PER HT/PER/DIR (UTC) (F) (DEG/KT/KT) (MB) (FT/S) (FT/S/D) UPR LAKE MARION NOT AVBL WINYAH BAY 0200 55 300/ 3 1017.0S LAKE MURRAY 0200 56 340/ 3/ 7 1019.0R ACE BASIN NERRS 0200 54 CALM 1018.0S FORT PULASKI 0300 61 340/ 5/ 6 1018.4S SAPELO ISLAND NOT AVBL $$ ANZ835-935-AMZ111-154-330-350-352-354-374-450-454-472-230400- ...C-MAN AND BUOY OBSERVATIONS... STATION/POSITION TIME TEMP WIND PRES WAVE SWELL AIR SEA DIR/SP/G HT/PER HT/PER/DIR (UTC) (F) (DEG/KT/KT) (MB) (FT/S) (FT/S/D) FOLLY BEACH CMAN 0200 59 300/ 3/ 4 1018.3R BUOY 41004 0300 67 78 350/ 14/ 17 1016.9R 4/ 6 2/10 BUOY 41008 0300 68 75 10/ 10/ 16 1017.9R 3/ 6 2/ 50/ 6 5E ST. MARYS GA 0300 77 N/A 3/ 6 FRYING PAN BUOY 0300 66 75 340/ 19/ 23 1016.8R 3/ 4 2/140/11 BUOY 41025 0300 61 310/ 25/ 29 1012.0R 6/ 6 2/ 50/ 9 CAPE LOOKOUT NC 0200 60 330/ 21/ 24 1014.7R BUOY 41002 0204 71 78 310/ 16/ 19 1014.3R 6/ 7 3/ 90/10 BUOY 41010 0300 74 81 360/ 12/ 16 1015.6F 4/ 6 3/350/ 6 BUOY 41012 NOT AVBL ST AUGUSTINE FL 0300 69 30/ 10/ 12 1018.4R CAPERS NEARSHORE NOT AVBL FRIPP NEARSHORE NOT AVBL $$

USA.gov is the U.S. government's official web portal to all federal, state and local government web resources and services.